Location: Allentsteig
(48.6833°N, 15.3167°E)
Time: 05:43:16
(UTC+00:00)

Lacrosse 4 Rocket - Pass Details

Date: 18 September 2020
Orbit: 543 x 615 km, 68.0° (Epoch: 23 October)

Event Time Altitude Azimuth Distance (km) Brightness Sun altitude
Rises 20:59:04 0° 327° (NNW) 2,717 5.9 -34.2°
Reaches altitude 10° 21:01:16 10° 329° (NNW) 1,823 4.8 -34.4°
Enters shadow 21:02:08 16° 330° (NNW) 1,481 4.2 -34.5°
